Flag for Germany Weather past 2 weeks in Sundern (Sauerland), North Rhine-Westphalia, Germany

Now
63 °F

Clear.


Feels Like: 63 °F
Forecast: 53 / 60 °F
Wind: 6 mph from Southwest

Location: Dortmund / Wickede

Current Time: Sep 20, 2014 at 11:08:46 PM

Latest Report: Sep 20, 2014 at 10:20 PM


Visibility: 10 mi

Pressure: 29.95 "Hg

Humidity: 83%

Dew point: 57 °F

Location of Sundern (Sauerland)Location

Historic Weather in Sundern (Sauerland) — Graph

°F

Sundern (Sauerland) temperature yesterday

Maximum temperature yesterday: 75 °F (at 3:20 PM)
Minimum temperature yesterday: 57 °F (at 6:20 AM)
Average temperature yesterday: 66 °F

Past Weeks' High & Low Weather Summary

 TemperatureHumidityPressure
High77 °F (Sep 6, 1:50 PM)94% (Sep 7, 5:50 AM)30.24 "Hg (Sep 7, 5:50 AM)
Low43 °F (Sep 12, 5:50 AM)39% (Sep 17, 3:20 PM)29.83 "Hg (Sep 19, 5:20 AM)
Average62 °F75%30.03 "Hg
* Reported Sep 5 9:20 PM — Sep 20 9:50 PM, Sundern (Sauerland), Weather by CustomWeather, © 2014

Note: Actual official high and low records may vary slightly from our data, if they occured in-between our weather recording intervals... More about our weather records

Advertising

Sundern (Sauerland) weather history for previous 24 hours

 ConditionsComfort  
Time TempWeatherWind HumidityBarometerVisibility
9:50 PM
Sep 20
63 °FClear.3 mph83%29.95 "Hg10 mi
9:20 PM61 °FScattered showers. Clear.2 mph88%29.95 "HgN/A
8:50 PM61 °FScattered showers. Passing clouds.9 mph88%29.95 "HgN/A
8:20 PM61 °FSprinkles. Scattered clouds.9 mph88%29.95 "HgN/A
7:50 PM61 °FThundershowers. Scattered clouds.9 mph94%29.95 "HgN/A
1:50 PM70 °FSunny.6 mph78%29.95 "Hg10 mi
1:20 PM70 °FScattered showers. Partly sunny.3 mph83%29.95 "HgN/A
12:50 PM70 °FScattered showers. Passing clouds.5 mph78%29.95 "HgN/A
12:20 PM70 °FScattered showers. Passing clouds.N/A88%29.95 "HgN/A
11:50 AMN/ASprinkles.6 mphN/A29.95 "Hg5 mi
11:20 AMN/ASprinkles.6 mphN/A29.95 "Hg4 mi
10:20 AM64 °FThundershowers. Fog.3 mph88%29.95 "Hg2 mi
9:50 AM63 °FFog.5 mph88%29.95 "Hg3 mi
9:20 AM63 °FFog.2 mph94%29.95 "Hg2 mi
8:50 AM63 °FFog.5 mph94%29.95 "Hg3 mi
8:20 AM61 °FFog.6 mph94%29.95 "Hg3 mi
7:50 AM59 °FFog.2 mph88%29.92 "Hg3 mi
7:20 AM55 °FFog.3 mph94%29.92 "Hg3 mi
6:50 AM57 °FClear.3 mph94%29.92 "Hg4 mi
6:20 AM59 °FClear.2 mph94%29.92 "Hg10 mi
5:50 AM57 °FClear.5 mph94%29.92 "Hg10 mi
5:20 AM59 °FClear.2 mph94%29.92 "Hg10 mi
Weather by CustomWeather, © 2014

See weather overviewHow to use our weather pages